Date String (YYYY-MM-DD hh:mm:ss) UTC,Instrument flags,Ambient pressure (hPa),Sample flow (lpm),Bypass flow (lpm),Sample temperature (°C),Ambient temperature (°C),ASC tube jacket temperature (°C),LED temperature (°C),Box temperature (°C),Sample RH (%),Span deviation,Mass concentration (μg/m³),Mass concentration (μg/m³),Mass concentration (μg/m³)
DateTimeUTC,F1_M11,P_M11,Q1_M11,Q2_M11,T1_M11,T2_M11,T3_M11,T4_M11,T5_M11,U1_M11,ZSPAN_M11,X0_M11,X2_M11,X1_M11
2022-08-12 06:00:00,,0829.8,5.00,0.00,29.3,27.8,00.0,38.1,31.2,26.7,0000.0,0017.11,0006.16,0004.91
2022-08-12 06:01:00,,0829.9,5.01,0.00,29.4,27.9,00.0,38.2,31.3,26.6,0000.0,0017.47,0006.11,0004.89
2022-08-12 06:02:00,,0829.9,5.00,0.00,29.4,28.1,00.0,38.2,31.3,26.7,0000.0,0017.61,0006.09,0004.85
2022-08-12 06:03:00,,0829.9,5.00,0.00,29.4,28.2,00.0,38.2,31.4,26.7,0000.0,0018.00,0006.14,0004.83
2022-08-12 06:04:00,,0830.0,4.99,0.00,29.4,28.3,00.0,38.2,31.4,26.6,0000.0,0017.97,0006.13,0004.79
2022-08-12 06:05:00,,0829.9,5.00,0.00,29.5,28.4,00.0,38.2,31.5,26.6,0000.0,0017.88,0006.11,0004.73
2022-08-12 06:06:00,,0829.9,5.00,0.00,29.5,28.5,00.0,38.2,31.5,26.6,0000.0,0017.67,0006.14,0004.71
2022-08-12 06:07:00,,0829.9,5.00,0.00,29.6,28.6,00.0,38.3,31.6,26.5,0000.0,0017.41,0006.11,0004.70
2022-08-12 06:08:00,,0829.9,4.99,0.00,29.6,28.7,00.0,38.3,31.6,26.5,0000.0,0017.43,0006.10,0004.69
2022-08-12 06:09:00,,0829.9,5.02,0.00,29.6,28.4,00.0,38.3,31.5,26.5,0000.0,0017.24,0006.13,0004.69
2022-08-12 06:10:00,,0829.9,4.99,0.00,29.6,27.8,00.0,38.2,31.4,26.6,0000.0,0016.99,0006.13,0004.68
2022-08-12 06:11:00,,0829.9,5.01,0.00,29.5,27.6,00.0,38.2,31.4,26.7,0000.0,0016.44,0006.14,0004.67
2022-08-12 06:12:00,,0829.9,4.99,0.00,29.5,27.6,00.0,38.2,31.3,26.9,0000.0,0016.06,0006.12,0004.66
2022-08-12 06:13:00,,0829.9,5.01,0.00,29.5,27.7,00.0,38.2,31.3,27.0,0000.0,0016.03,0006.15,0004.64
2022-08-12 06:14:00,,0829.9,4.99,0.00,29.5,27.8,00.0,38.2,31.3,27.0,0000.0,0015.20,0006.17,0004.63
2022-08-12 06:15:00,,0829.8,5.01,0.00,29.5,28.0,00.0,38.2,31.4,27.1,0000.0,0015.48,0006.12,0004.63
2022-08-12 06:16:00,,0829.8,5.00,0.00,29.5,28.1,00.0,38.3,31.4,27.1,0000.0,0015.72,0006.13,0004.65
2022-08-12 06:17:00,,0829.8,5.00,0.00,29.5,28.2,00.0,38.3,31.5,27.1,0000.0,0016.18,0006.08,0004.66
2022-08-12 06:18:00,,0829.9,5.00,0.00,29.5,28.4,00.0,38.3,31.5,27.1,0000.0,0015.92,0006.12,0004.69
2022-08-12 06:19:00,,0829.9,4.99,0.00,29.6,28.5,00.0,38.3,31.5,26.9,0000.0,0015.68,0006.12,0004.70
2022-08-12 06:20:00,,0829.9,5.01,0.00,29.6,28.6,00.0,38.3,31.6,26.9,0000.0,0015.63,0006.09,0004.70
2022-08-12 06:21:00,,0829.9,4.99,0.00,29.6,28.6,00.0,38.4,31.6,26.7,0000.0,0015.62,0006.08,0004.72
2022-08-12 06:22:00,,0830.0,5.02,0.00,29.6,28.2,00.0,38.3,31.5,26.6,0000.0,0016.38,0006.08,0004.72
2022-08-12 06:23:00,,0830.0,5.00,0.00,29.6,27.6,00.0,38.3,31.4,26.6,0000.0,0017.08,0006.13,0004.74
2022-08-12 06:24:00,,0829.8,5.00,0.00,29.6,27.5,00.0,38.3,31.3,26.7,0000.0,0017.56,0006.15,0004.77
2022-08-12 06:25:00,,0829.8,4.99,0.00,29.5,27.6,00.0,38.3,31.3,26.8,0000.0,0017.95,0006.13,0004.80
2022-08-12 06:26:00,,0829.8,5.01,0.00,29.5,27.7,00.0,38.3,31.3,26.8,0000.0,0018.18,0006.16,0004.82
2022-08-12 06:27:00,,0829.9,4.99,0.00,29.5,27.8,00.0,38.3,31.4,27.0,0000.0,0018.23,0006.12,0004.82
2022-08-12 06:28:00,,0829.9,5.00,0.00,29.5,28.0,00.0,38.3,31.4,27.0,0000.0,0018.23,0006.10,0004.84
2022-08-12 06:29:00,,0829.9,5.00,0.00,29.5,28.1,00.0,38.3,31.4,26.9,0000.0,0017.96,0006.09,0004.84
2022-08-12 06:30:00,,0829.9,5.00,0.00,29.5,28.2,00.0,38.3,31.5,26.9,0000.0,0017.64,0006.12,0004.84
2022-08-12 06:31:00,,0829.9,5.00,0.00,29.6,28.3,00.0,38.3,31.5,27.0,0000.0,0017.46,0006.15,0004.85
2022-08-12 06:32:00,,0829.9,5.01,0.00,29.6,28.4,00.0,38.3,31.6,27.1,0000.0,0017.05,0006.16,0004.87
2022-08-12 06:33:00,,0829.9,5.01,0.00,29.6,28.5,00.0,38.4,31.6,26.9,0000.0,0015.88,0006.13,0004.88
2022-08-12 06:34:00,,0829.9,5.00,0.00,29.6,28.6,00.0,38.4,31.6,26.9,0000.0,0014.48,0006.08,0004.88
2022-08-12 06:35:00,,0829.9,5.00,0.00,29.7,28.6,00.0,38.4,31.6,27.1,0000.0,0014.07,0006.06,0004.89
2022-08-12 06:36:00,,0829.8,5.01,0.00,29.7,28.1,00.0,38.4,31.5,27.4,0000.0,0013.50,0006.04,0004.89
2022-08-12 06:37:00,,0829.8,5.00,0.00,29.6,27.7,00.0,38.3,31.4,27.3,0000.0,0013.96,0006.04,0004.89
2022-08-12 06:38:00,,0829.8,5.00,0.00,29.6,27.6,00.0,38.3,31.3,27.0,0000.0,0014.02,0006.06,0004.90
2022-08-12 06:39:00,,0829.8,5.00,0.00,29.5,27.6,00.0,38.3,31.3,26.9,0000.0,0014.01,0006.12,0004.91
2022-08-12 06:40:00,,0829.8,5.00,0.00,29.5,27.7,00.0,38.3,31.4,27.0,0000.0,0014.55,0006.19,0004.92
2022-08-12 06:41:00,,0829.8,5.00,0.00,29.5,27.9,00.0,38.3,31.4,27.2,0000.0,0014.45,0006.17,0004.92
2022-08-12 06:42:00,,0829.8,5.00,0.00,29.5,28.0,00.0,38.3,31.4,27.3,0000.0,0014.13,0006.16,0004.91
2022-08-12 06:43:00,,0829.8,5.01,0.00,29.5,28.1,00.0,38.3,31.5,27.2,0000.0,0014.06,0006.14,0004.91
2022-08-12 06:44:00,,0829.8,4.99,0.00,29.6,28.3,00.0,38.4,31.5,26.9,0000.0,0014.38,0006.20,0004.91
2022-08-12 06:45:00,,0829.8,5.00,0.00,29.6,28.4,00.0,38.4,31.5,26.8,0000.0,0014.39,0006.18,0004.92
2022-08-12 06:46:00,,0829.8,5.00,0.00,29.6,28.5,00.0,38.4,31.6,26.8,0000.0,0014.69,0006.16,0004.94
2022-08-12 06:47:00,,0829.8,5.01,0.00,29.6,28.5,00.0,38.4,31.6,26.6,0000.0,0014.70,0006.19,0004.96
2022-08-12 06:48:00,,0829.8,5.00,0.00,29.7,28.6,00.0,38.4,31.7,26.3,0000.0,0013.92,0006.28,0004.99
2022-08-12 06:49:00,,0829.8,5.00,0.00,29.7,28.6,00.0,38.4,31.7,26.3,0000.0,0013.34,0006.32,0005.01
2022-08-12 06:50:00,,0829.8,5.01,0.00,29.7,28.0,00.0,38.4,31.5,26.4,0000.0,0013.01,0006.30,0005.02
2022-08-12 06:51:00,,0829.8,5.01,0.00,29.6,27.6,00.0,38.4,31.4,26.5,0000.0,0012.62,0006.26,0005.03
2022-08-12 06:52:00,,0829.8,5.01,0.00,29.6,27.5,00.0,38.4,31.4,26.6,0000.0,0012.28,0006.26,0005.06
2022-08-12 06:53:00,,0829.8,4.99,0.00,29.5,27.6,00.0,38.4,31.3,26.4,0000.0,0012.75,0006.29,0005.09
2022-08-12 06:54:00,,0829.8,5.01,0.00,29.5,27.7,00.0,38.3,31.4,26.2,0000.0,0012.89,0006.30,0005.10
2022-08-12 06:55:00,,0829.8,4.99,0.00,29.5,27.9,00.0,38.4,31.4,26.1,0000.0,0012.73,0006.29,0005.11
2022-08-12 06:56:00,,0829.8,5.01,0.00,29.5,28.0,00.0,38.4,31.4,26.1,0000.0,0012.84,0006.30,0005.13
2022-08-12 06:57:00,,0829.7,4.99,0.00,29.5,28.1,00.0,38.4,31.5,26.1,0000.0,0012.62,0006.32,0005.11
2022-08-12 06:58:00,,0829.8,5.01,0.00,29.6,28.3,00.0,38.4,31.5,26.0,0000.0,0012.94,0006.33,0005.12
2022-08-12 06:59:00,,0829.8,5.00,0.00,29.6,28.4,00.0,38.4,31.5,26.0,0000.0,0012.81,0006.31,0005.12
